Flag for U.S.A. Weather past 2 weeks in St. Petersburg, Florida, U.S.A.

Now
75 °F

Passing clouds.


Feels Like: 74 °F
Forecast: 73 / 82 °F
Wind: 10 mph from East

Location: Whitted Airport

Current Time: Sep 21, 2014 at 6:37:29 AM

Latest Report: Sep 21, 2014 at 5:53 AM


Visibility: 10 mi

Pressure: 29.93 "Hg

Humidity: 90%

Dew point: 72 °F

Location of St. PetersburgLocation

Historic Weather in St. Petersburg — Graph

°F

St. Petersburg temperature yesterday

Maximum temperature yesterday: 79 °F (at 2:53 PM)
Minimum temperature yesterday: 72 °F (at 7:53 AM)
Average temperature yesterday: 76 °F

Past Weeks' High & Low Weather Summary

 TemperatureHumidityPressure
High93 °F (Sep 11, 4:53 PM)97% (Sep 20, 7:53 AM)30.15 "Hg (Sep 20, 7:53 AM)
Low72 °F (Sep 20, 7:53 AM)42% (Sep 11, 4:53 PM)29.85 "Hg (Sep 17, 4:53 PM)
Average81 °F76%29.98 "Hg
* Reported Sep 6 5:53 AM — Sep 21 5:00 AM, St. Petersburg, Weather by CustomWeather, © 2014

Note: Actual official high and low records may vary slightly from our data, if they occured in-between our weather recording intervals... More about our weather records

Advertising

St. Petersburg weather history for previous 24 hours

 ConditionsComfort  
Time TempWeatherWind HumidityBarometerVisibility
5:00 AM
Sep 21
75 °FPassing clouds.12 mph90%29.93 "Hg10 mi
3:53 AM76 °FPassing clouds.12 mph88%29.92 "Hg10 mi
2:53 AM76 °FClear.9 mph88%29.93 "Hg10 mi
1:53 AM77 °FClear.9 mph85%29.93 "Hg10 mi
12:53 AM77 °FClear.10 mph85%29.92 "Hg10 mi
11:53 PM
Sep 20
77 °FClear.9 mph88%29.92 "Hg10 mi
10:53 PM78 °FPassing clouds.No wind82%29.93 "Hg10 mi
9:53 PM78 °FClear.No wind79%29.93 "Hg10 mi
9:04 PM78 °FPassing clouds.3 mph79%29.93 "Hg10 mi
8:53 PM78 °FPassing clouds.5 mph79%29.92 "Hg10 mi
7:53 PM78 °FSunny.6 mph79%29.90 "Hg10 mi
6:53 PM79 °FSunny.7 mph77%29.88 "Hg10 mi
5:53 PM79 °FSunny.5 mph74%29.88 "Hg10 mi
4:53 PM79 °FSunny.3 mph72%29.88 "Hg10 mi
3:53 PM78 °FSunny.3 mph74%29.88 "Hg10 mi
2:53 PM79 °FSunny.5 mph74%29.89 "Hg10 mi
1:53 PM76 °FOvercast.No wind82%29.91 "Hg10 mi
9:00 AM72 °FPartly sunny.6 mph97%29.91 "Hg10 mi
8:03 AM72 °FOvercast.6 mph93%29.90 "Hg10 mi
7:53 AM72 °FLight rain. Low clouds.5 mph97%29.89 "Hg10 mi
7:02 AM73 °FLight rain. Low clouds.9 mph94%29.89 "Hg10 mi
6:53 AM73 °FLight rain. Overcast.10 mph94%29.88 "Hg9 mi
Weather by CustomWeather, © 2014

See weather overviewHow to use our weather pages